Weather in Taptanay

Russia / Zabaykalsky Krai     50°46′38″N   113°48′38″E
temp.,
°C
wind,
m/s
gust,
m/s
humid.,
%
clouds,
%
prec.,
mm/h
press.,
hPa
HPBL,
m
30 june, thu
thu3000:00+20ese01525 0.0 100511
03:00+18nnw11605 0.0 100611
06:00+18nw11614 0.0 100611
09:00+25sse23440 0.0 1006368
12:00+30s46324 0.0 10052282
15:00+32s552612 0.0 10033168
18:00+29s2435100 0.0 1003855
21:00+24se224666 0.0 100325
1 july, fri
fri100:00+19se22643 0.0 100511
03:00+17sse11714 0.0 100511
06:00+17se11754 0.0 100511
09:00+24sse245291 0.0 1005419
12:00+29s453749 0.0 10041192
15:00+31s463189 0.0 10022277
18:00+32s5530100 0.0 10002681
21:00+24s225445 0.3 100118
2 july, sat
sat200:00+17nne2286100 2.0 100418
03:00+17ne1187100 3.8 100311
06:00+16wnw118986 0.3 100311
09:00+22nw117063 0.3 1002354
12:00+28sw01470 0.0 10011267
15:00+31s233616 0.0 10002084
18:00+28sw224565 0.0 999449
21:00+25n1155100 0.0 99911
3 july, sun
sun300:00+21e1162100 0.0 100011
03:00+20ese116311 0.0 100011
06:00+20e1167100 0.0 100011
09:00+26ese2249100 0.0 999306
12:00+28s3544100 0.0 998828
15:00+25wsw81150100 0.0 10001219
18:00+20sw61374100 0.4 999729
21:00+19s2675100 0.4 999288
4 july, mon
mon400:00+18ese118184 0.0 99852
03:00+18sse228296 0.0 99851
06:00+15se119393 0.0 99712
09:00+20s1173100 0.0 996607
12:00+25sse3454100 0.0 9951493
15:00+28s3542100 0.0 9921962
18:00+28sse364537 0.0 990624
21:00+16nw1183100 1.9 99227